Regional Weather Roundup
Issued by NWS

Home | Current Version | Previous Version | Text Only | Print | Product List | Glossary On
Versions: 1 2 3 4 5 6 7 8 9 10 11 12 13 14 15 16 17 18 19 20 21 22 23 24 25 26 27 28 29 30 31 32 33 34 35 36 37 38 39 40 41 42 43 44 45 46 47 48 49 50
000
ASCA44 KEWX 051320
RWRMX

LATIN AMERICA AND CARIBBEAN REGIONAL WEATHER ROUNDUP
NATIONAL WEATHER SERVICE AUSTIN/SAN ANTONIO TX
800 AM CDT SUN JUL 05 2015

NOTE: "FAIR" INDICATED FEW OR NO CLOUDS BELOW 12,000 FEET WITH NO
SIGNIFICANT WEATHER AND/OR OBSTRUCTIONS TO VISIBILITY.

BAJA CALIFORNIA

CITY           SKY/WX    TMP DP  RH WIND       PRES   REMARKS
LORETO         PTCLDY    84  73  70 CALM      29.84  HX  91
S.J. DEL CABO  PTCLDY    81  66  61 NW6       29.90
TIJUANA        CLOUDY    64  55  72 W9        29.96R

NORTHWESTERN MEXICO

CITY           SKY/WX    TMP DP  RH WIND       PRES   REMARKS
DURANGO        MOCLDY    57  55  94 CALM      30.28
HERMOSILLO     MOCLDY    82  72  69 N12       29.94R
CD. JUAREZ     PTCLDY    70  68  94 SW6       30.03
LOS MOCHIS     PTCLDY    82  73  74 E9        29.90
OBREGON        PTCLDY    82  73  74 E6        29.87

NORTHEASTERN MEXICO

CITY           SKY/WX    TMP DP  RH WIND       PRES   REMARKS
CHIHUAHUA      MOCLDY    64  64 100 W5        30.15
MATAMOROS      MOSUNNY   81  77  89 SE14      30.01
MONCLOVA       PTSUNNY   75  66  73 CALM      29.98
MONTERREY      CLOUDY    72  68  88 NE3       29.98R
NUEVO LAREDO   CLOUDY    77  70  78 SE7       29.99
PIEDRAS NEGRAS MOSUNNY   77  70  78 SE7       30.00
REYNOSA          N/A     77  73  88 SE8       29.99  FOG
SALTILLO       PTSUNNY   70  63  78 CALM      30.19
TORREON        PTCLDY    75  64  69 CALM      30.10R
CD. VICTORIA   MOSUNNY   75  73  94 SE13      30.01

WESTERN MEXICO

CITY           SKY/WX    TMP DP  RH WIND       PRES   REMARKS
AGUASCALIENTES MOCLDY    57  55  94 W2        30.33  FOG
COLIMA         PTCLDY    73  66  78 CALM      30.06
GUADALAJARA    MOCLDY    64  61  88 CALM      30.25
MANZANILLO     PTCLDY    81  72  74 N6        29.85
MAZATLAN       MOCLDY    73  68  83 N8        29.91R
P. VALLARTA    MOCLDY    79  77  94 NE3       29.92R
ZACATECAS      PTCLDY    57  48  72 CALM      30.33R

CENTRAL MEXICO

CITY           SKY/WX    TMP DP  RH WIND       PRES   REMARKS
CUERNAVACA     PTSUNNY   63  63 100 CALM      30.22R FOG
MEXICO CITY    CLOUDY    57  52  82 CALM      30.39R
POZA RICA      CLOUDY    77  75  94 CALM      30.01S FOG
PUEBLA         FOG       55  54  94 NW2       30.40R VSB 1
QUERETARO      CLOUDY    59  57  94 CALM      30.37R FOG
S. LUIS POTOSI CLOUDY    59  59 100 N5        30.30R FOG
TAMPICO        PTSUNNY   79  77  94 CALM      30.01R HAZE
TOLUCA         CLOUDY    50  48  93 CALM      30.46R

SOUTHERN MEXICO

CITY           SKY/WX    TMP DP  RH WIND       PRES   REMARKS
ACAPULCO       CLOUDY    82  75  78 CALM      29.88R
B. DE HUATULCO CLOUDY    79  73  83 CALM      29.97
OAXACA         PTSUNNY   57  55  94 N6        30.29R
P. ESCONDIDO   PTSUNNY   77  72  83 NE7       29.98
VERACRUZ       CLOUDY    75  75 100 NW5       30.00R
ZIHUATANEJO    PTCLDY    77  72  83 CALM      29.90R

YUCATAN PENINSULA

CITY           SKY/WX    TMP DP  RH WIND       PRES   REMARKS
CAMPECHE       MOSUNNY   77  75  94 E7        30.02R
CANCUN         MOSUNNY   82  79  89 E8        30.05R HX  93
CHETUMAL       SUNNY     82  72  69 NE6       30.02
CD. DEL CARMEN MOSUNNY   82  75  78 E9        30.00
COZUMEL        MOSUNNY   75  75 100 CALM      30.05R
MERIDA         SUNNY     81  75  83 NE7       30.05R
MINATITLAN     MOSUNNY   82  68  61 N7        29.92
TAPACHULA      MOSUNNY   79  73  83 CALM      29.89R
TUX. GUTIERREZ CLOUDY    72  68  88 CALM      30.02R FOG
VILLAHERMOSA   MOSUNNY   81  72  74 E14       30.00R

CENTRAL AMERICA

CITY           SKY/WX    TMP DP  RH WIND       PRES   REMARKS
BELIZE CITY    PTSUNNY   84  79  84 E12       30.01R HX  96
MANAGUA        PTSUNNY   82  73  74 E12       29.86R

CARIBBEAN

CITY           SKY/WX    TMP DP  RH WIND       PRES   REMARKS
ARUBA          MOSUNNY   84  77  79 E25       29.92S HX  94
CURACAO        MOSUNNY   84  75  74 E12       29.97R HX  92
KINGSTON       MOSUNNY   86  73  66 SE23      30.00R HX  93
NASSAU         MOSUNNY   84  75  74 SE10      30.17  HX  92
SAN JUAN       MOSUNNY   86  72  62 E18G25    30.11S HX  92
SANTO DOMINGO  PTSUNNY   82  72  69 NE12      30.09S
ST. CROIX      MOSUNNY   88  70  55 E23G30    30.08  HX  92
ST. KITTS      MOSUNNY   86  75  70 NE21      30.06S HX  95
ST. MAARTEN    PTSUNNY   84  73  70 E13       30.09S HX  91
ST. THOMAS     CLOUDY    88  72  58 E16G26    30.10  HX  94

$$



USA.gov is the U.S. government's official web portal to all federal, state and local government web resources and services.